TimeCDT,TemperatureF,Dew PointF,Humidity,Sea Level PressureIn,VisibilityMPH,Wind Direction,Wind SpeedMPH,Gust SpeedMPH,PrecipitationIn,Events,Conditions,WindDirDegrees,DateUTC
12:53 AM,78.1,60.1,54,29.91,10.0,South,11.5,-,N/A,,Clear,180,2013-07-19 05:53:00
1:53 AM,77.0,60.1,56,29.91,10.0,South,9.2,-,N/A,,Clear,190,2013-07-19 06:53:00
2:53 AM,75.0,61.0,62,29.90,10.0,SSW,8.1,-,N/A,,Clear,200,2013-07-19 07:53:00
3:53 AM,73.0,61.0,66,29.90,10.0,South,10.4,-,N/A,,Clear,190,2013-07-19 08:53:00
4:53 AM,72.0,62.1,71,29.89,10.0,SSW,6.9,-,N/A,,Clear,200,2013-07-19 09:53:00
5:53 AM,70.0,62.1,76,29.90,10.0,WSW,4.6,-,N/A,,Clear,250,2013-07-19 10:53:00
6:53 AM,69.1,62.1,78,29.90,10.0,Calm,Calm,-,N/A,,Clear,0,2013-07-19 11:53:00
7:53 AM,72.0,63.0,73,29.89,10.0,Calm,Calm,-,N/A,,Clear,0,2013-07-19 12:53:00
8:53 AM,75.0,63.0,66,29.92,10.0,WSW,4.6,-,N/A,,Clear,250,2013-07-19 13:53:00
9:53 AM,82.9,63.0,51,29.93,10.0,NE,8.1,-,N/A,,Clear,50,2013-07-19 14:53:00
10:53 AM,88.0,63.0,43,29.93,10.0,ENE,15.0,-,N/A,,Clear,70,2013-07-19 15:53:00
11:53 AM,91.0,63.0,39,29.93,10.0,ENE,12.7,-,N/A,,Partly Cloudy,60,2013-07-19 16:53:00
12:53 PM,93.0,64.0,38,29.92,10.0,East,12.7,-,N/A,,Partly Cloudy,90,2013-07-19 17:53:00
1:53 PM,93.0,62.1,36,29.91,10.0,East,13.8,20.7,N/A,,Partly Cloudy,100,2013-07-19 18:53:00
2:53 PM,95.0,61.0,32,29.90,10.0,ENE,11.5,19.6,N/A,Thunderstorm,Partly Cloudy,60,2013-07-19 19:53:00
3:07 PM,89.6,62.6,40,29.99,10.0,NE,18.4,25.3,N/A,,Mostly Cloudy,50,2013-07-19 20:07:00
3:46 PM,86.0,66.2,51,29.98,10.0,NE,26.5,31.1,N/A,Thunderstorm,Clear,50,2013-07-19 20:46:00
3:53 PM,84.9,66.0,53,29.90,10.0,NE,21.9,31.1,N/A,Thunderstorm,Clear,50,2013-07-19 20:53:00
4:17 PM,84.2,62.6,48,29.98,10.0,ENE,20.7,26.5,N/A,,Clear,60,2013-07-19 21:17:00
4:53 PM,84.9,66.0,53,29.91,10.0,ENE,17.3,-,N/A,,Clear,60,2013-07-19 21:53:00
5:04 PM,84.2,64.4,51,30.00,10.0,ENE,17.3,-,N/A,Thunderstorm,Partly Cloudy,70,2013-07-19 22:04:00
5:19 PM,86.0,64.4,48,30.00,10.0,ENE,15.0,20.7,N/A,,Partly Cloudy,70,2013-07-19 22:19:00
5:53 PM,87.1,62.1,43,29.89,10.0,ENE,17.3,-,N/A,,Clear,70,2013-07-19 22:53:00
6:53 PM,84.9,64.0,49,29.91,10.0,NE,15.0,-,N/A,,Clear,50,2013-07-19 23:53:00
7:53 PM,82.9,57.9,42,29.91,10.0,NE,10.4,-,N/A,,Mostly Cloudy,50,2013-07-20 00:53:00
8:53 PM,81.0,55.9,42,29.93,10.0,SSW,4.6,-,N/A,,Mostly Cloudy,200,2013-07-20 01:53:00
9:53 PM,77.0,61.0,58,29.93,10.0,Variable,5.8,-,N/A,,Clear,0,2013-07-20 02:53:00
10:53 PM,73.9,64.0,71,29.94,10.0,SW,11.5,-,N/A,,Mostly Cloudy,230,2013-07-20 03:53:00
11:07 PM,73.4,62.6,69,30.03,10.0,SSW,8.1,-,N/A,Thunderstorm,Mostly Cloudy,210,2013-07-20 04:07:00
11:28 PM,73.4,64.4,73,30.01,10.0,SW,5.8,-,N/A,,Partly Cloudy,220,2013-07-20 04:28:00
11:53 PM,73.0,64.0,73,29.93,10.0,WNW,3.5,-,N/A,,Clear,300,2013-07-20 04:53:00